Location: Neuvy Saint Sepulchre
(46.5953°N, 1.8122°E)
Time: 10:53:49
(UTC+02:00)

ISS - Pass Details

Date: 11 May 2021
Orbit: 417 x 422 km, 51.6° (Epoch: 15 May)

Event Time Altitude Azimuth Distance (km) Brightness Sun altitude
Rises 05:11:09 0° 295° (WNW) 2,371 -0.2 -11.1°
Reaches altitude 10° 05:13:17 10° 300° (WNW) 1,506 -1.1 -10.8°
Maximum altitude 05:16:36 55° 19° (NNE) 514 -3.0 -10.4°
Drops below altitude 10° 05:19:56 10° 99° (E) 1,503 -0.3 -9.9°
Sets 05:22:03 0° 104° (ESE) 2,366 0.6 -9.7°
